This is the latest recevied weather packets stored in our database for station/object KD0RIH. If no packets are shown the sender has not sent any weather packets the latest 10 day(s).
| Time | Temp. | Humidity | Pressure | Rain* | Wind** | Luminosity | Snow |
|---|---|---|---|---|---|---|---|
| 1777601710 | 10° C | 57% | 1017.5 hPa | 0 mm | - | 0 W/m² | - |
| 1777601406 | 10.56° C | 57% | 1017.7 hPa | 0 mm | - | 0 W/m² | - |
| 1777601102 | 10.56° C | 57% | 1017.6 hPa | 0 mm | - | 0 W/m² | - |
| 1777600800 | 10.56° C | 54% | 1017.9 hPa | 0 mm | - | 0 W/m² | - |
| 1777600495 | 11.11° C | 54% | 1017.5 hPa | 0 mm | - | 0 W/m² | - |
| 1777600190 | 11.67° C | 53% | 1017.6 hPa | 0 mm | - | 0 W/m² | - |
| 1777599887 | 11.67° C | 52% | 1017.5 hPa | 0 mm | - | 0 W/m² | - |
| 1777599583 | 11.67° C | 51% | 1017.3 hPa | 0 mm | - | 0 W/m² | - |
| 1777599280 | 11.67° C | 52% | 1017.3 hPa | 0 mm | - | 0 W/m² | - |
| 1777598976 | 11.67° C | 51% | 1017.2 hPa | 0 mm | - | 0 W/m² | - |
| 1777598674 | 12.22° C | 50% | 1017.3 hPa | 0 mm | - | 0 W/m² | - |
| 1777598369 | 12.22° C | 49% | 1017.2 hPa | 0 mm | - | 1 W/m² | - |
| 1777598068 | 12.22° C | 49% | 1017.2 hPa | 0 mm | - | 2 W/m² | - |
| 1777597767 | 12.78° C | 48% | 1017.3 hPa | 0 mm | - | 3 W/m² | - |
| 1777597462 | 12.78° C | 48% | 1017.1 hPa | 0 mm | - | 5 W/m² | - |
| 1777597158 | 12.78° C | 47% | 1017 hPa | 0 mm | - | 8 W/m² | - |
| 1777596855 | 13.33° C | 46% | 1017 hPa | 0 mm | - | 11 W/m² | - |
| 1777596550 | 13.33° C | 45% | 1016.8 hPa | 0 mm | - | 14 W/m² | - |
| 1777596248 | 13.89° C | 44% | 1016.7 hPa | 0 mm | - | 17 W/m² | - |
| 1777595945 | 13.89° C | 44% | 1016.6 hPa | 0 mm | - | 20 W/m² | - |
| 1777595645 | 14.44° C | 43% | 1016.7 hPa | 0 mm | - | 33 W/m² | - |
| 1777595341 | 13.89° C | 43% | 1016.4 hPa | 0 mm | - | 34 W/m² | - |
| 1777595037 | 14.44° C | 43% | 1016.5 hPa | 0 mm | - | 21 W/m² | - |
| 1777594734 | 14.44° C | 44% | 1016.5 hPa | 0 mm | - | 22 W/m² | - |
| 1777594431 | 14.44° C | 44% | 1016.3 hPa | 0 mm | - | 31 W/m² | - |
* Rain latest hour (hover to see other rain measurements)
** Current wind speed in m/s (hover to see current wind gust speed)